Weather in Karauylkeldy

Kazakhstan     48°41′51″N   55°53′02″E
temp.,
°C
wind,
m/s
gust,
m/s
humid.,
%
clouds,
%
prec.,
mm/h
press.,
hPa
HPBL,
m
9 august, tue
tue923:00+26ne41044100 0.0 1015447
02:00+23ne495121 0.0 1015245
05:00+21ne475583 0.0 1015151
08:00+24ene464048 0.0 1016285
11:00+28ne56305 0.0 10161862
14:00+31ne56265 0.0 10142639
17:00+32ne66232 0.0 10133057
20:00+30ne67253 0.0 1013640
10 august, wed
wed1023:00+26e510405 0.0 1014270
02:00+24ene34475 0.0 101471
05:00+22ene36527 0.0 1015100
08:00+25e45375 0.0 1016294
11:00+29ene452875 0.0 10161935
14:00+31ne452212 0.0 10152599
17:00+32ne442044 0.0 10142992
20:00+30ne462360 0.0 1015325
11 august, thu
thu1123:00+26ene48303 0.0 1016148
02:00+24e34345 0.0 101656
05:00+23e343822 0.0 101758
08:00+25e45350 0.0 1018210
11:00+30e33250 0.0 10181824
14:00+32e33190 0.0 10172902
17:00+33e32170 0.0 10163260
20:00+32ene34202 0.0 101683
12 august, fri
fri1223:00+27ese34268 0.0 101748
02:00+26se2228100 0.0 101711
05:00+25sse223043 0.0 101712
08:00+27s233134 0.0 1018122
11:00+33w222028 0.0 10182429
14:00+33n32193 0.0 10171535
17:00+34nnw551973 0.0 10162961
20:00+32n352343 0.0 1016152
13 august, sat
sat1323:00+27nne712290 0.0 1017398
02:00+24nne611270 0.0 1018311
05:00+21nne48380 0.0 1018185
08:00+22nne46390 0.0 1019242
11:00+28ne44230 0.0 1018885
14:00+33ne33150 0.0 10171924
17:00+34ne43150 0.0 10162444
20:00+31ne69200 0.0 1016371